TimeCST,TemperatureF,Dew PointF,Humidity,Sea Level PressureIn,VisibilityMPH,Wind Direction,Wind SpeedMPH,Gust SpeedMPH,PrecipitationIn,Events,Conditions,WindDirDegrees,DateUTC
12:54 AM,55.0,44.1,67,30.04,10.0,SW,8.1,-,N/A,,Overcast,220,2012-11-23 06:54:00
1:41 AM,53.6,46.4,77,30.05,10.0,SW,8.1,-,0.00,Rain,Light Rain,220,2012-11-23 07:41:00
1:54 AM,54.0,46.9,77,30.05,9.0,SW,8.1,-,0.00,Rain,Light Rain,220,2012-11-23 07:54:00
2:54 AM,54.0,48.9,83,30.05,10.0,WSW,8.1,-,0.02,,Overcast,250,2012-11-23 08:54:00
3:54 AM,55.9,48.9,77,30.07,10.0,NNW,21.9,29.9,0.00,,Overcast,330,2012-11-23 09:54:00
4:22 AM,51.8,42.8,71,30.08,10.0,NNW,12.7,-,N/A,,Overcast,330,2012-11-23 10:22:00
4:54 AM,50.0,39.0,66,30.11,10.0,NW,15.0,26.5,N/A,,Overcast,320,2012-11-23 10:54:00
5:54 AM,46.9,37.0,68,30.12,10.0,NW,12.7,17.3,N/A,,Clear,310,2012-11-23 11:54:00
6:54 AM,42.1,35.1,76,30.16,10.0,WNW,5.8,-,N/A,,Clear,300,2012-11-23 12:54:00
7:54 AM,45.0,35.1,68,30.18,10.0,WNW,8.1,-,N/A,,Clear,300,2012-11-23 13:54:00
8:54 AM,46.9,30.9,54,30.19,10.0,WNW,13.8,21.9,N/A,,Clear,290,2012-11-23 14:54:00
9:54 AM,48.9,32.0,52,30.19,10.0,WNW,13.8,23.0,N/A,,Clear,290,2012-11-23 15:54:00
10:54 AM,48.9,33.1,54,30.19,10.0,West,18.4,24.2,N/A,,Mostly Cloudy,280,2012-11-23 16:54:00
11:54 AM,46.9,32.0,56,30.19,10.0,NW,13.8,24.2,N/A,,Overcast,310,2012-11-23 17:54:00
12:54 PM,46.9,30.9,54,30.19,10.0,NW,15.0,21.9,N/A,,Mostly Cloudy,310,2012-11-23 18:54:00
1:54 PM,46.9,28.9,50,30.19,10.0,WNW,19.6,24.2,N/A,,Mostly Cloudy,300,2012-11-23 19:54:00
2:54 PM,46.0,28.9,51,30.20,10.0,WNW,12.7,19.6,N/A,,Partly Cloudy,300,2012-11-23 20:54:00
3:54 PM,44.1,26.1,49,30.22,10.0,NW,11.5,-,N/A,,Clear,320,2012-11-23 21:54:00
4:54 PM,41.0,25.0,53,30.25,10.0,NW,15.0,19.6,N/A,,Clear,320,2012-11-23 22:54:00
5:54 PM,39.0,23.0,53,30.27,10.0,NW,9.2,-,N/A,,Clear,320,2012-11-23 23:54:00
6:54 PM,37.0,23.0,57,30.29,10.0,NW,8.1,-,N/A,,Clear,310,2012-11-24 00:54:00
7:54 PM,35.1,21.9,59,30.30,10.0,NW,9.2,-,N/A,,Clear,320,2012-11-24 01:54:00
8:54 PM,34.0,19.9,56,30.30,10.0,NW,10.4,-,N/A,,Clear,320,2012-11-24 02:54:00
9:54 PM,32.0,19.9,61,30.30,10.0,NW,6.9,-,N/A,,Clear,320,2012-11-24 03:54:00
10:54 PM,30.9,18.0,59,30.32,10.0,NNW,9.2,-,N/A,,Clear,330,2012-11-24 04:54:00
11:54 PM,30.0,17.1,59,30.31,10.0,NW,10.4,-,N/A,,Clear,320,2012-11-24 05:54:00